Regional Weather Roundup
Issued by NWS Binghamton, NY

Home | Current Version | Previous Version | Text Only | Print | Product List | Glossary On
Versions: 1 2 3 4 5 6 7 8 9 10 11 12 13 14 15 16 17 18 19 20 21 22 23 24 25 26 27
000
ASUS41 KBGM 190710
RWRBGM

REGIONAL WEATHER ROUNDUP
NATIONAL WEATHER SERVICE BINGHAMTON NY
300 AM EDT THU OCT 19 2017

Note: "fair" indicates few or no clouds below 12,000 feet with no
significant weather and/or obstructions to visibility.

* = Station(s) that does not report precipitation, such as rain,
snow, etc, also no thunder or fog.

NYZ009-015>018-022>025-036-037-044>046-055>057-062-190800
...Central New York...

CITY           SKY/WX    TMP DP  RH WIND       PRES   REMARKS
Binghamton     CLEAR     51  41  68 S7        30.20F
Cortland       FAIR      41  41 100 CALM      30.19F
Dansville      CLEAR     46  40  79 SE8       30.16S
Elmira         CLEAR     41  40  96 CALM      30.19S
Seneca Falls   SUNNY     54  45  71 S9        30.15F
Ithaca         CLEAR     51  43  74 SE9       30.18F
Hamilton       CLEAR     46  43  87 SE6       30.19F
Hornell        CLEAR     37  37 100 CALM      30.20F
Monticello     CLEAR     41  40  96 N5        30.26F
Oneonta        CLEAR     52 N/A N/A SW3       30.21F
Penn Yan       CLEAR     55  42  61 SW10      30.15S
Rome           PTCLDY    46  43  89 SE5       30.19S
Sidney         CLEAR     39  39 100 CALM      30.23S FOG
Syracuse       CLEAR     55  44  66 SE7       30.14F
$$

PAZ038>040-043-044-047-048-072-190800
...Northeast Pennsylvania...

CITY           SKY/WX    TMP DP  RH WIND       PRES   REMARKS
Hazleton       CLEAR     45  36  70 CALM      30.29S
Scranton       CLEAR     45  43  93 CALM      30.24F
$$
&&
KEY
WCI = Wind Chill Index
VSB = Visibility
HX  = Heat Index
$$




USA.gov is the U.S. government's official web portal to all federal, state and local government web resources and services.